COSMOS 2014

Satellite information

Favourite Embed

Satellite Type and Status

PAYLOADIN ORBIT

Key statistics

Satellite COSMOS 2014 at a glance.

Uptime

13256

Days in orbit

Revolutions

≈ 12.5

Per day

Orbit

LEO

Low Earth Orbit

Inclination

74.0

Latest

Satellite identification and parameters

Extended collection of information and parameters for COSMOS 2014.

Object identification

Identified? True

Debris? False

Object name: COSMOS 2014

International designator: 1989-025G

Object number (NORAD): 19908

Object ID (CCSDS): 19908

Country: COMMONWEALTH OF INDEPENDENT STATES (CIS)

Current information (Y/N): Y

RCS size: MEDIUM

Orbital parameters

Period: 115.543 minutes

Inclination: 74.0082 deg

SMA: 7858.213 km

Apoapsis: 1490.425 km

Periapsis: 1469.732 km

RAAN: 163.7241 deg

Eccentricy: 0.0013166

Argument of periapsis: 296.0318 deg

Mean anomaly: 78.5825 deg

Mean motion: 12.46284032 rev/day

Mean motion (dot): -0.00000016 rev/day2

B* drag term: 0.0000018091 1/REarth

Two-line elements (TLE)

Creation date: July 9, 2025, 2:22 a.m.

Reference frame: TEME

Reference center: EARTH

Epoch: July 8, 2025, 9:15 p.m. UTC

TLE line 0: 0 COSMOS 2014

TLE line 1: 1 19908U 89025G 25189.88541832 -.00000016 00000-0 18091-5 0 9997

TLE line 2: 2 19908 74.0082 163.7241 0013166 296.0318 78.5825 12.46284032651076

Live tracking on map

Real-time ground track for satellite COSMOS 2014.

In-orbit conjunctions

A list of the most updated potential collisions computed for object COSMOS 2014.

Target Orbit TCA Probability of collision Miss distance Type
THORAD DELTA 1 DEB SSO 2025-03-28 00:13:19 0.0002886677 895.0 (m) DEBRIS
COSMOS 1823 DEB LEO 2024-11-19 00:18:20 0.0002566656 322.0 (m) DEBRIS
COSMOS 1156 LEO 2024-11-18 00:16:32 0.001530035 97.0 (m) PAYLOAD
DELTA 1 DEB SSO 2024-07-08 01:55:39 0.0001719136 87.0 (m) DEBRIS

Associated space launch

Military communications satellites

COSMOS 2014 was lifted into orbit during the mission ‘Kosmos-3M | Strela-1M 337-344’, on board a Kosmos-3M space rocket.

The launch took place on March 24, 1989, 1:38 p.m. from 132/2.

For more information about the launch, click the button.

Launch to space Kosmos-3M | Strela-1M 337-344
Kosmos-3M | Strela-1M 337-344

Agency: N/A

Status: Launch Successful

Launch date: March 24, 1989, 1:38 p.m. UTC

Rocket: Kosmos-3M

Launch pad: 132/2

Location: Plesetsk Cosmodrome, Russian Federation

...

Latest news about this satellite

There are no fresh news available about this satellite. Check back as we update our databases every day.


Newsletter sign-up

Weekly statistics, charts and insights to help you stay on top of the space industry.